Tracking 29777 objects as of 5-Oct-2024
HD Live streaming from Space Station
objects crossing your sky now

STARLINK-32043

Track STARLINK-32043 now!
10-day predictions
STARLINK-32043 is classified as:


NORAD ID: 60135
Int'l Code: 2024-120A
Perigee: 453.8 km
Apogee: 455.0 km
Inclination: 53.2 °
Period: 93.5 minutes
Semi major axis: 6825 km
RCS: Unknown
Launch date: June 27, 2024
Source: United States (US)
Launch site: AIR FORCE EASTERN TEST RANGE (AFETR)
Your satellite tracking list
Your tracking list is empty




NASA's NSSDC Master Catalog

Two Line Element Set (TLE):
1 60135U 24120A   24278.85798893  .00001358  00000-0  43919-4 0  9991
2 60135  53.1603 224.1654 0000881  94.1900 265.9205 15.39625988 16562
Source of the keplerian elements: AFSPC